Regional Weather Roundup
Issued by NWS

Home | Current Version | Previous Version | Text Only | Print | Product List | Glossary On
Versions: 1 2 3 4 5 6 7 8 9 10 11 12 13 14 15 16 17 18 19 20 21 22 23 24 25 26 27 28 29 30 31 32 33 34 35 36 37 38 39 40 41 42 43 44 45 46 47 48 49 50
000
ASCA42 TJSJ 261910
RWRPR
PUERTO RICO/U.S. VIRGIN ISLANDS HOURLY WEATHER ROUNDUP
NATIONAL WEATHER SERVICE SAN JUAN PR
300 PM AST THU MAR 26 2015

PRZ001-004-262000-
PUERTO RICO

CITY           SKY/WX    TMP DP  RH WIND       PRES   REMARKS
SAN JUAN LMM   MOSUNNY   84  72  65 NE17G25   30.03F
PONCE          MOSUNNY   88  70  55 SE17G29   29.97F HX  92
MAYAGUEZ       PTSUNNY   86  72  62 SW13      30.06  HX  92
AGUADILLA      MOSUNNY   82  70  65 E23       30.03F
CEIBA          MOSUNNY   82  70  65 NE10      30.05F
$$

PRZ006-007-262000-
U.S. VIRGIN ISLANDS

CITY           SKY/WX    TMP DP  RH WIND       PRES   REMARKS
CHRISTIANSTED  MOSUNNY   84  66  54 E17G24    30.03F
$$

HOURLY WEATHER ROUNDUP FOR THE NEWS MEDIA

CITY           SKY/WX    TMP DP  RH WIND       PRES   REMARKS
ORLANDO        PTSUNNY   84  67  56 S9G18     29.93F
NEW YORK       LGT RAIN  52  48  87 S22       29.73F FOG
NEWARK         CLOUDY    51  49  92 CALM      29.72F FOG
CHICAGO        PTSUNNY   41  24  51 NW13      29.95F
HARTFORD       RAIN      46  45  96 S9        29.78F FOG
BOSTON         LGT RAIN  51  49  92 S12       29.74F FOG
DALLAS         MOSUNNY   63  37  39 N18G25    30.14S
PHILADELPHIA   CLOUDY    64  59  83 S15G21    29.70F
LOS ANGELES    SUNNY     84  41  21 W7        30.08F
WASHINGTON DC  MOSUNNY   72  57  59 S14G26    29.66F



USA.gov is the U.S. government's official web portal to all federal, state and local government web resources and services.